Location: Home
(42.5358°N, 72.7383°W)
Time: 05:25:33
(UTC-04:00)

COSMOS 2251 DEB - Pass Details

Date: 27 June 2022
Orbit: 769 x 1233 km, 74.1° (Epoch: 15 August)

Event Time Altitude Azimuth Distance (km) Brightness Sun altitude
Exits shadow 03:05:15 28° 198° (SSW) 1,609 ? -17.5°
Maximum altitude 03:08:31 90° 153° (SSE) 939 ? -17.2°
Drops below altitude 10° 03:15:03 10° 20° (NNE) 2,822 ? -16.6°
Sets 03:17:48 0° 21° (NNE) 3,850 ? -16.3°
